Terminal Aerodrome Forecast
Issued by NWS Twin Cities, MN

Home | Current Version | Previous Version | Text Only | Print | Product List | Glossary Off
Versions: 1 2 3 4 5 6 7 8 9 10 11 12 13 14 15 16 17 18 19 20 21 22

000
FTUS43 KMPX 211700
TAFEAU
TAF
KEAU 211729Z 2118/2218 10008KT P6SM SKC
     FM220000 12005KT P6SM SKC
     FM221500 16012G19KT P6SM BKN150=

USA.gov is the U.S. government's official web portal to all federal, state and local government web resources and services.